Powrót do katalogu

DELTA 1 DEB

AktywnySSO
NORAD 14464·DEBRIS·🇺🇸 United States

Wystrzelony Mar 5, 1978 z Vandenberg Space Force Base

Loading…

Następne Przeloty (najbliższe 24 godziny)

TLE

ŚwieżeSource: Space-Track

Epoka: Sep 12, 2026, 04:55 UTC

1 14464U 78026GE  26255.20554170 -.00000017  00000-0  21926-4 0  9999
2 14464  99.4018 123.1902 0059811 296.8851 192.3253 13.94503210232867

Śledź DELTA 1 DEB w czasie rzeczywistym z AllMySat

Download on the App Store